Terminal Aerodrome Forecast
Issued by NWS Knoxville/Tri Cities, TN

Home | Current Version | Previous Version | Text Only | Print | Product List | Glossary On
Versions: 1 2 3 4 5 6 7 8 9 10 11 12 13 14 15 16 17 18 19 20 21 22 23 24 25 26 27 28 29 30 31 32 33 34 35 36 37
000
FTUS44 KMRX 030530
TAFTYS
TAF
KTYS 030530Z 0306/0406 VRB05KT P6SM VCTS SCT045CB SCT100 BKN150
      TEMPO 0306/0308 4SM SHRA BR BKN035 OVC120
     FM030930 VRB04KT 3SM BR VCTS SCT040CB BKN150
     FM031300 VRB05KT P6SM SCT045 BKN250
     FM031800 VRB05KT P6SM VCTS SCT040CB SCT100 BKN250
     FM040100 VRB03KT P6SM SCT250=

USA.gov is the U.S. government's official web portal to all federal, state and local government web resources and services.